Hourly Data Report for September 28, 2017

All times are specified in Local Standard Time (LST). Add 1 hour to adjust for Daylight Saving Time where and when it is observed.

OTTAWA INTL A
ONTARIO

45°19'00.000" N
75°40'00.000" W
114.90 m
6106001
71628
YOW

Download Data

Hourly Data (September 2017)
Hourly Data Report for September 28, 2017
Temp Definition
°C
Dew Point Temp Definition
°C
Rel Hum Definition
%
Wind Dir Definition
10's deg

Wind Spd Definition
km/h
Visibility Definition
km
Stn Press Definition
kPa
Hmdx Definition


Wind Chill Definition


Weather Definition


TIME
00:00 Legend Double Dagger 15.5 10.6 72 27 21 24.1 99.64     LegendNANA
01:00 Legend Double Dagger 15.1 10.4 73 32 22 24.1 99.75     Mainly Clear
02:00 Legend Double Dagger 13.3 6.4 63 32 13 24.1 99.83     LegendNANA
03:00 Legend Double Dagger 12.8 5.4 61 31 23 24.1 99.84     LegendNANA
04:00 Legend Double Dagger 11.6 5.8 68 31 21 24.1 99.96     Clear
05:00 Legend Double Dagger 10.2 5.9 74 29 13 24.1 99.99     LegendNANA
06:00 Legend Double Dagger 9.8 6.2 78 32 17 24.1 100.04     LegendNANA
07:00 Legend Double Dagger 10.6 5.6 71 31 18 24.1 100.08     Clear
08:00 Legend Double Dagger 11.7 5.6 66 32 26 24.1 100.16     LegendNANA
09:00 Legend Double Dagger 12.6 4.8 59 34 28 24.1 100.19     LegendNANA
10:00 Legend Double Dagger 13.2 5.0 57 33 26 24.1 100.19     Mostly Cloudy
11:00 Legend Double Dagger 13.6 4.4 53 31 26 24.1 100.20     LegendNANA
12:00 Legend Double Dagger 14.1 4.1 51 33 27 24.1 100.19     LegendNANA
13:00 Legend Double Dagger 14.9 4.6 50 32 16 24.1 100.17     Mostly Cloudy
14:00 Legend Double Dagger 14.3 4.0 50 30 17 24.1 100.15     LegendNANA
15:00 Legend Double Dagger 13.9 3.2 48 32 18 24.1 100.15     LegendNANA
16:00 Legend Double Dagger 13.6 3.1 49 31 23 24.1 100.18     Mostly Cloudy
17:00 Legend Double Dagger 13.0 3.6 53 31 22 24.1 100.22     LegendNANA
18:00 Legend Double Dagger 12.4 3.6 54 30 20 24.1 100.25     LegendNANA
19:00 Legend Double Dagger 11.6 5.9 68 28 15 24.1 100.30     Mostly Cloudy
20:00 Legend Double Dagger 11.8 4.8 62 31 21 24.1 100.32     LegendNANA
21:00 Legend Double Dagger 11.0 4.8 66 31 23 24.1 100.36     LegendNANA
22:00 Legend Double Dagger 8.8 4.8 76 31 13 24.1 100.35     Mainly Clear
23:00 Legend Double Dagger 8.2 4.9 80 32 11 24.1 100.35     LegendNANA

Notes on Data Quality.

Legend

  • E = Estimated
  • M = Missing
  • NA = Not Available
  • ‡ = Partner data that is not subject to review by the National Climate Archives
Date modified: